Change the Weather History Date:

Sunday, February 3, 2013

  Actual Average Record
Temperature  
Mean Temperature -6 °F -  
Max Temperature 0 °F -22 °F 21 °F (2007)
Min Temperature -11 °F -42 °F -65 °F (1993)
Degree Days  
Heating Degree Days 70    
Moisture  
Dew Point -24 °F    
Average Humidity 47    
Maximum Humidity 100    
Minimum Humidity 4    
Precipitation  
Precipitation 0.00 in - - ()
Sea Level Pressure  
Sea Level Pressure 29.46 in    
Wind  
Wind Speed 0 mph (NNE)    
Max Wind Speed 5 mph    
Max Gust Speed -    
Visibility 10 miles    
Events      
Averages and records for this station are not official NWS values.
T = Trace of Precipitation, MM = Missing Value Source: NWS Daily Summary

Daily Weather History Graph

Daily Weather History Graph

Search for Another Location

Airport or City:

Trip Planner

Search our weather history database for the weather conditions in past years. The results will help you decide how hot, cold, wet, or windy it might be!

Date:

Astronomy

Feb. 03, 2013 Rise Set
Actual Time 9:49 AM AKST 4:03 PM AKST
Civil Twilight 8:39 AM AKST 5:13 PM AKST
Nautical Twilight 7:30 AM AKST 6:23 PM AKST
Astronomical Twilight 6:25 AM AKST 7:28 PM AKST
Moon 3:50 AM AKST (2/3) 9:17 AM AKST (2/3)
Length of Visible Light 8h 34m
Length of Day
6h 13m
Waning Gibbous, 47% of the Moon is Illuminated
Feb 3
Waning Gibbous
Feb 9
New
Feb 17
First Quarter
Feb 25
Full
Mar 4
Last Quarter

Hourly Weather History & Observations

Time (AKST) Temp. Windchill Dew Point Humidity Pressure Visibility Wind Dir Wind Speed Gust Speed Precip Events Conditions
12:16 AM -9.4 °F - - N/A% 29.63 in 10.0 mi Calm Calm - N/A   Clear
12:36 AM -9.4 °F - - N/A% 29.63 in 10.0 mi Calm Calm - N/A   Clear
12:56 AM -11.2 °F - - N/A% 29.61 in 10.0 mi Calm Calm - N/A   Clear
1:16 AM -11.2 °F - - N/A% 29.61 in 10.0 mi Calm Calm - N/A   Clear
1:36 AM -11.2 °F - -27.4 °F 45% 29.61 in 10.0 mi Calm Calm - N/A   Mostly Cloudy
1:56 AM -9.4 °F - -22.0 °F 54% 29.60 in 10.0 mi Calm Calm - N/A   Overcast
2:16 AM -9.4 °F - -20.2 °F 59% 29.60 in 10.0 mi Calm Calm - N/A   Overcast
2:36 AM -9.4 °F - - N/A% 29.59 in 10.0 mi Calm Calm - N/A   Mostly Cloudy
2:56 AM -11.2 °F - - N/A% 29.58 in 10.0 mi Calm Calm - N/A   Scattered Clouds
3:16 AM -9.4 °F - - N/A% 29.57 in 10.0 mi Calm Calm - N/A   Mostly Cloudy
3:36 AM -7.6 °F - - N/A% 29.56 in 10.0 mi Calm Calm - N/A   Overcast
3:56 AM -9.4 °F - - N/A% 29.55 in 10.0 mi Calm Calm - N/A   Overcast
4:16 AM -7.6 °F - -27.4 °F 38% 29.54 in 10.0 mi Calm Calm - N/A   Overcast
4:36 AM -7.6 °F -16.5 °F -23.8 °F 45% 29.53 in 10.0 mi North 3.5 mph - N/A   Overcast
4:56 AM -7.6 °F - -18.4 °F 59% 29.53 in 10.0 mi Calm Calm - N/A   Overcast
5:16 AM -7.6 °F - -14.8 °F 71% 29.52 in 10.0 mi Calm Calm - N/A   Overcast
5:36 AM -7.6 °F - -9.4 °F 92% 29.51 in 10.0 mi Calm Calm - N/A   Overcast
5:56 AM -7.6 °F - - N/A% 29.50 in 10.0 mi Calm Calm - N/A   Overcast
6:16 AM -7.6 °F - - N/A% 29.49 in 10.0 mi Calm Calm - N/A   Overcast
6:36 AM -7.6 °F - - N/A% 29.49 in 10.0 mi Calm Calm - N/A   Overcast
6:56 AM -7.6 °F - -27.4 °F 38% 29.48 in 10.0 mi Calm Calm - N/A   Overcast
7:16 AM -7.6 °F - -23.8 °F 45% 29.47 in 10.0 mi Calm Calm - N/A   Overcast
7:36 AM -5.8 °F - -16.6 °F 60% 29.47 in 10.0 mi Calm Calm - N/A   Overcast
7:56 AM -7.6 °F - -16.6 °F 65% 29.46 in 10.0 mi Calm Calm - N/A   Overcast
8:16 AM -7.6 °F - - N/A% 29.46 in 10.0 mi Calm Calm - N/A   Overcast
8:36 AM -7.6 °F - - N/A% 29.45 in 10.0 mi Calm Calm - N/A   Overcast
8:56 AM -7.6 °F - - N/A% 29.44 in 10.0 mi Calm Calm - N/A   Overcast
9:16 AM -7.6 °F - -29.2 °F 34% 29.44 in 10.0 mi Calm Calm - N/A   Mostly Cloudy
9:36 AM -7.6 °F -16.5 °F -25.6 °F 41% 29.44 in 10.0 mi North 3.5 mph - N/A   Mostly Cloudy
9:56 AM -7.6 °F - -23.8 °F 45% 29.44 in 10.0 mi Calm Calm - N/A   Overcast
10:16 AM -7.6 °F - -11.2 °F 84% 29.44 in 10.0 mi Calm Calm - N/A   Overcast
10:36 AM -7.6 °F - -50.8 °F 11% 29.43 in 10.0 mi Calm Calm - N/A   Mostly Cloudy
10:56 AM -7.6 °F - - N/A% 29.43 in 10.0 mi Calm Calm - N/A   Mostly Cloudy
11:16 AM -7.6 °F - - N/A% 29.42 in 10.0 mi Calm Calm - N/A   Scattered Clouds
11:36 AM -7.6 °F - - N/A% 29.42 in 10.0 mi Calm Calm - N/A   Mostly Cloudy
11:56 AM -7.6 °F - -29.2 °F 34% 29.42 in 10.0 mi Calm Calm - N/A   Overcast
12:16 PM -5.8 °F - -22.0 °F 46% 29.42 in 10.0 mi Calm Calm - N/A   Overcast
12:36 PM -5.8 °F - -18.4 °F 55% 29.41 in 10.0 mi Calm Calm - N/A   Overcast
12:56 PM -5.8 °F - - N/A% 29.40 in 10.0 mi Calm Calm - N/A   Overcast
1:16 PM -4.0 °F - -29.2 °F 29% 29.40 in 10.0 mi Calm Calm - N/A   Overcast
1:36 PM -4.0 °F - -31.0 °F 26% 29.40 in 10.0 mi Calm Calm - N/A   Scattered Clouds
1:56 PM -2.2 °F -12.5 °F -25.6 °F 32% 29.40 in 10.0 mi North 4.6 mph - N/A   Clear
2:16 PM -4.0 °F - -20.2 °F 46% 29.40 in 10.0 mi Calm Calm - N/A   Clear
2:36 PM -4.0 °F -12.4 °F -14.8 °F 60% 29.39 in 10.0 mi North 3.5 mph - N/A   Clear
2:56 PM -4.0 °F -14.6 °F -11.2 °F 71% 29.39 in 10.0 mi NNE 4.6 mph - N/A   Clear
3:16 PM -4.0 °F -14.6 °F -43.6 °F 13% 29.38 in 10.0 mi NE 4.6 mph - N/A   Scattered Clouds
3:36 PM -4.0 °F -12.4 °F - N/A% 29.38 in 10.0 mi ENE 3.5 mph - N/A   Mostly Cloudy
3:56 PM -4.0 °F -14.6 °F -31.0 °F 26% 29.38 in 10.0 mi ENE 4.6 mph - N/A   Mostly Cloudy
4:16 PM -4.0 °F - -27.4 °F 32% 29.38 in 10.0 mi Calm Calm - N/A   Overcast
4:36 PM -4.0 °F - -22.0 °F 42% 29.38 in 10.0 mi Calm Calm - N/A   Overcast
4:56 PM -5.8 °F - -18.4 °F 55% 29.38 in 10.0 mi Calm Calm - N/A   Mostly Cloudy
5:16 PM -4.0 °F - -9.4 °F 78% 29.38 in 10.0 mi Calm Calm - N/A   Overcast
5:36 PM -5.8 °F - - N/A% 29.38 in 9.0 mi Calm Calm - N/A   Overcast
5:56 PM -4.0 °F -14.6 °F - N/A% 29.38 in 10.0 mi NNE 4.6 mph - N/A   Overcast
6:16 PM -2.2 °F -10.4 °F -29.2 °F 27% 29.38 in 10.0 mi North 3.5 mph - N/A   Overcast
6:36 PM -2.2 °F -10.4 °F -25.6 °F 32% 29.38 in 10.0 mi North 3.5 mph - N/A   Overcast
6:56 PM -4.0 °F - -20.2 °F 46% 29.39 in 10.0 mi Calm Calm - N/A   Overcast
7:16 PM -2.2 °F - -11.2 °F 66% 29.39 in 10.0 mi Calm Calm - N/A   Overcast
7:36 PM -2.2 °F - -9.4 °F 71% 29.40 in 10.0 mi Calm Calm - N/A   Overcast
7:56 PM -2.2 °F - - N/A% 29.40 in 10.0 mi Calm Calm - N/A   Overcast
8:16 PM -2.2 °F - -29.2 °F 27% 29.40 in 9.0 mi Calm Calm - N/A   Overcast
8:36 PM -0.4 °F - -18.4 °F 43% 29.40 in 5.0 mi Calm Calm - N/A   Overcast
8:56 PM -2.2 °F - -20.2 °F 42% 29.41 in 3.0 mi Calm Calm - N/A   Overcast
9:16 PM -0.4 °F - -18.4 °F 43% 29.41 in 5.0 mi Calm Calm - N/A   Overcast
9:36 PM -0.4 °F - -11.2 °F 60% 29.42 in 4.0 mi Calm Calm - N/A   Overcast
9:56 PM -2.2 °F - -9.4 °F 71% 29.42 in 5.0 mi Calm Calm - N/A   Overcast
10:16 PM -2.2 °F - -115.6 °F 4% 29.43 in 9.0 mi Calm Calm - N/A   Mostly Cloudy
10:36 PM -2.2 °F - -27.4 °F 29% 29.43 in 10.0 mi Calm Calm - N/A   Partly Cloudy
10:56 PM -2.2 °F - -25.6 °F 32% 29.44 in 9.0 mi Calm Calm - N/A   Mostly Cloudy
11:16 PM -2.2 °F - -25.6 °F 32% 29.44 in 6.0 mi Calm Calm - N/A   Overcast
11:36 PM -2.2 °F - -16.6 °F 50% 29.44 in 10.0 mi Calm Calm - N/A   Overcast
11:56 PM -2.2 °F - -2.2 °F 100% 29.44 in 10.0 mi Calm Calm - N/A   Overcast